Regional Weather Roundup
Issued by NWS

Home | Current Version | Previous Version | Text Only | Print | Product List | Glossary Off
Versions: 1 2 3 4 5 6 7 8 9 10 11 12 13 14 15 16 17 18 19 20 21 22 23 24 25 26 27 28 29 30 31 32 33 34 35 36 37 38 39 40 41 42 43 44 45 46 47 48 49 50

091
ASUS44 KMEG 200110
RWRTN
TENNESSEE HOURLY STATE WEATHER ROUNDUP
NATIONAL WEATHER SERVICE MEMPHIS TN
700 PM CST MON FEB 19 2018

TNZ002-004-019-021-049-052-054-088>092-200200-
WEST TENNESSEE

CITY           SKY/WX    TMP DP  RH WIND       PRES   REMARKS
MEMPHIS INTL   MOCLDY    71  54  54 SE6       30.03S
NWS MEMPHIS      N/A     70 N/A N/A MISG        N/A
JACKSON        FAIR      70  61  73 S6        30.07R
DYERSBURG      FAIR      69  57  65 S6        30.04F
SOMERVILLE     CLEAR     70  59  68 SE5       30.05S
COVINGTON      CLEAR     68  57  68 SE8       30.04S
UNION CITY     CLEAR     68  55  64 S9        30.03S
BOLIVAR        CLEAR     68  61  77 SE6       30.07R
PARIS          PTCLDY    68  59  73 S12       30.07S
HUNTINGDON     CLEAR     68  61  77 SE7       30.07S
LEXINGTON      CLEAR     68  59  73 VRB6      30.10S
SELMER         PTCLDY    66  61  82 S7        30.10S
SAVANNAH       PTCLDY    68  59  73 S5        30.11R
$$

TNZ008-025-027-028-033-062-065-066-200200-
NORTH MIDDLE TENNESSEE

CITY           SKY/WX    TMP DP  RH WIND       PRES   REMARKS
NASHVILLE      MOCLDY    69  56  62 SE5       30.15R
PORTLAND       MOCLDY    66  57  72 S7        30.14S
CLARKSVILLE    FAIR      68  54  60 S8        30.10S
SMYRNA         MOCLDY    62  55  77 CALM      30.16R
COOKEVILLE     CLOUDY    64  57  77 S10       30.20R
GALLATIN       CLOUDY    68  55  64 S3        30.17R
CROSSVILLE     FAIR      60  55  83 S7        30.25S
$$

TNZ061-075-076-078-094-096-097-200200-
SOUTH MIDDLE TENNESSEE

CITY           SKY/WX    TMP DP  RH WIND       PRES   REMARKS
FAYETTEVILLE   PTCLDY    68  55  64 S8        30.18R
TULLAHOMA      PTCLDY    68  54  60 S7        30.17S
WINCHESTER     CLEAR     66  55  68 S10       30.20S
MCMINNVILLE    MOCLDY    66  59  77 S5        30.19R
COLUMBIA       CLEAR     68  61  77 S6        30.12S
SHELBYVILLE    CLEAR     68  55  64 S7        30.16S
$$

TNZ017-018-042-046-047-200200-
NORTHEAST TENNESSEE

CITY           SKY/WX    TMP DP  RH WIND       PRES   REMARKS
TRI CITIES     FAIR      59  55  87 CALM      30.28R
ELIZABETHTON   FAIR      57  54  88 CALM      30.29R
$$

TNZ012-013-036-069-073-074-200200-
CENTRAL EAST TENNESSEE

CITY           SKY/WX    TMP DP  RH WIND       PRES   REMARKS
KNOXVILLE      CLOUDY    66  54  65 SW7       30.24R
OAK RIDGE      MOCLDY    66  58  75 CALM      30.25R
DOWNTOWN KNOXV CLOUDY    63  54  72 CALM      30.25R
GATLINBURG     PTCLDY    63  50  63 CALM      30.25R
JACKSBORO      CLOUDY    61  57  88 CALM      30.28R
$$

TNZ083-085-099-200200-
SOUTHEAST TENNESSEE

CITY           SKY/WX    TMP DP  RH WIND       PRES   REMARKS
CHATTANOOGA    MOCLDY    64  57  78 SE8       30.25R
$$

SKY/WX REPORTED AS FAIR MEANS FEW OR NO CLOUDS BELOW
12 THOUSAND FEET.





USA.gov is the U.S. government's official web portal to all federal, state and local government web resources and services.